BCS3196 EDDP-ESSA

Flight info

Callsign BCS3196
Flight time N/A
Altitude 35000
Route PENEM1E PENEM Z131 PENEK DCT DETNI DCT VIBAR/N0451F270 Z227 NILUG
Aircraft A306/H-SDE1FGHIRWXYZ/HB1

Departure

Time 2026-05-06 18:51
Airport Leipzig/Halle Airport (EDDP)

Arrival

Time N/A
Airport Stockholm-Arlanda Airport (ESSA)
Time Latitude Longitude Altitude Speed Heading
2026-05-06 17:47 51.40764 12.23563 470 ft 0 kts 266°
2026-05-06 18:33 51.40764 12.23564 470 ft 1 kts 265°
2026-05-06 18:33 51.40767 12.23602 470 ft 4 kts 264°
2026-05-06 18:33 51.40767 12.23643 470 ft 4 kts 293°
2026-05-06 18:33 51.40756 12.23673 463 ft 4 kts 321°
2026-05-06 18:34 51.40735 12.23686 469 ft 4 kts
2026-05-06 18:34 51.40723 12.23685 466 ft 1 kts 355°
2026-05-06 18:39 51.40730 12.23685 469 ft 2 kts 355°
2026-05-06 18:40 51.40759 12.23681 469 ft 5 kts 355°
2026-05-06 18:40 51.40798 12.23676 470 ft 5 kts 355°
2026-05-06 18:40 51.40844 12.23670 471 ft 8 kts 355°
2026-05-06 18:40 51.40909 12.23662 471 ft 11 kts 356°
2026-05-06 18:41 51.40983 12.23654 474 ft 9 kts 356°
2026-05-06 18:41 51.41017 12.23648 472 ft 4 kts 349°
2026-05-06 18:41 51.41041 12.23621 470 ft 6 kts 307°
2026-05-06 18:41 51.41046 12.23537 474 ft 10 kts 266°
2026-05-06 18:42 51.41041 12.23432 477 ft 9 kts 266°
2026-05-06 18:42 51.41037 12.23336 472 ft 8 kts 265°
2026-05-06 18:42 51.41032 12.23241 471 ft 8 kts 265°
2026-05-06 18:42 51.41028 12.23139 472 ft 11 kts 266°
2026-05-06 18:43 51.41021 12.22993 474 ft 15 kts 266°
2026-05-06 18:43 51.41014 12.22827 473 ft 15 kts 265°
2026-05-06 18:43 51.41005 12.22667 472 ft 14 kts 264°
2026-05-06 18:43 51.40997 12.22504 469 ft 14 kts 265°
2026-05-06 18:44 51.40992 12.22387 467 ft 8 kts 269°
2026-05-06 18:44 51.41007 12.22325 465 ft 5 kts 315°
2026-05-06 18:44 51.41030 12.22312 466 ft 5 kts 349°
2026-05-06 18:44 51.41071 12.22262 465 ft 9 kts 290°
2026-05-06 18:45 51.41070 12.22171 465 ft 9 kts 264°
2026-05-06 18:45 51.41063 12.22039 465 ft 14 kts 265°
2026-05-06 18:45 51.41056 12.21885 465 ft 13 kts 266°
2026-05-06 18:45 51.41050 12.21752 466 ft 11 kts 265°
2026-05-06 18:46 51.41043 12.21628 465 ft 12 kts 265°
2026-05-06 18:46 51.41036 12.21482 460 ft 14 kts 266°
2026-05-06 18:46 51.41029 12.21314 458 ft 16 kts 266°
2026-05-06 18:46 51.41022 12.21138 455 ft 17 kts 265°
2026-05-06 18:47 51.41013 12.20969 448 ft 13 kts 265°
2026-05-06 18:47 51.41007 12.20860 446 ft 8 kts 265°
2026-05-06 18:47 51.41003 12.20776 433 ft 7 kts 265°
2026-05-06 18:47 51.40999 12.20692 434 ft 8 kts 265°
2026-05-06 18:48 51.40995 12.20592 435 ft 10 kts 265°
2026-05-06 18:48 51.41001 12.20513 437 ft 4 kts 293°
2026-05-06 18:48 51.41014 12.20489 433 ft 3 kts 321°
2026-05-06 18:48 51.41035 12.20478 438 ft 2 kts 352°
2026-05-06 18:49 51.41056 12.20483 431 ft 5 kts 13°
2026-05-06 18:49 51.41106 12.20503 437 ft 9 kts 14°
2026-05-06 18:49 51.41160 12.20539 429 ft 5 kts 46°
2026-05-06 18:49 51.41166 12.20580 438 ft 0 kts 85°
2026-05-06 18:50 51.41167 12.20588 431 ft 5 kts 85°
2026-05-06 18:50 51.41174 12.20734 434 ft 25 kts 85°
2026-05-06 18:50 51.41205 12.21386 457 ft 92 kts 85°
2026-05-06 18:51 51.41269 12.22746 472 ft 151 kts 86°
2026-05-06 18:51 51.41344 12.24627 880 ft 176 kts 84°
2026-05-06 18:51 51.41434 12.26592 1888 ft 180 kts 85°
2026-05-06 18:51 51.41536 12.28612 2859 ft 181 kts 86°
2026-05-06 18:52 51.41636 12.30643 3737 ft 187 kts 86°
2026-05-06 18:52 51.41738 12.32879 4304 ft 216 kts 86°
2026-05-06 18:52 51.41852 12.35397 4939 ft 238 kts 86°
2026-05-06 18:52 51.42002 12.38203 5407 ft 267 kts 81°
2026-05-06 18:53 51.42693 12.41003 6168 ft 279 kts 52°
2026-05-06 18:53 51.44217 12.42901 6728 ft 280 kts 20°
2026-05-06 18:53 51.46119 12.43266 6952 ft 278 kts 349°
2026-05-06 18:53 51.47973 12.42443 6988 ft 277 kts 339°
2026-05-06 18:54 51.49800 12.41449 6988 ft 278 kts 339°
2026-05-06 18:54 51.51644 12.40511 6975 ft 278 kts 341°
2026-05-06 18:54 51.53496 12.39623 6989 ft 278 kts 340°
2026-05-06 18:54 51.55260 12.38394 6986 ft 275 kts 326°
2026-05-06 18:55 51.56695 12.36413 6992 ft 272 kts 307°
2026-05-06 18:55 51.57644 12.33814 6983 ft 269 kts 291°
2026-05-06 18:55 51.58288 12.30994 6997 ft 269 kts 287°
2026-05-06 18:55 51.58883 12.28137 7377 ft 271 kts 287°
2026-05-06 18:56 51.59487 12.25248 8249 ft 274 kts 287°
2026-05-06 18:56 51.60117 12.22296 9314 ft 277 kts 288°
2026-05-06 18:56 51.61005 12.19563 10200 ft 285 kts 304°
2026-05-06 18:56 51.62493 12.17299 10680 ft 308 kts 322°
2026-05-06 18:57 51.64344 12.15359 11024 ft 329 kts 326°
2026-05-06 18:57 51.66358 12.13372 11342 ft 349 kts 326°
2026-05-06 18:57 51.68572 12.11485 11611 ft 369 kts 336°
2026-05-06 18:57 51.71109 12.10661 11842 ft 379 kts 357°
2026-05-06 18:58 51.73723 12.11368 12001 ft 384 kts 18°
2026-05-06 18:58 51.76191 12.13031 12003 ft 386 kts 25°
2026-05-06 18:58 51.78600 12.14940 12004 ft 386 kts 22°
2026-05-06 18:58 51.81082 12.16632 12158 ft 389 kts 21°
2026-05-06 18:59 51.83629 12.18317 12885 ft 391 kts 21°
2026-05-06 18:59 51.86161 12.19964 13626 ft 395 kts 21°
2026-05-06 18:59 51.88694 12.21599 14248 ft 398 kts 20°
2026-05-06 18:59 51.91278 12.23267 14890 ft 402 kts 20°
2026-05-06 19:00 51.93925 12.24981 15535 ft 406 kts 20°
2026-05-06 19:00 51.96564 12.26696 16168 ft 411 kts 20°
2026-05-06 19:00 51.99193 12.28410 16786 ft 415 kts 20°
2026-05-06 19:00 52.01879 12.30166 17431 ft 419 kts 20°